Flag for Germany Weather past 2 weeks in Falkensee, Brandenburg, Germany

Now
37 °F

Light rain. Passing clouds.


Feels Like: 27 °F
Forecast: 33 / 38 °F
Wind: 20 mph from Southwest

Location: Berlin-Tegel

Current Time: Jan 28, 2015 at 11:20:09 PM

Latest Report: Jan 28, 2015 at 10:20 PM


Visibility: N/A

Pressure: 29.27 "Hg

Humidity: 93%

Dew point: 36 °F

Location of FalkenseeLocation

Historic Weather in Falkensee — Graph

°F

Falkensee temperature yesterday

Maximum temperature yesterday: 39 °F (at 12:50 AM)
Minimum temperature yesterday: 32 °F (at 10:20 PM)
Average temperature yesterday: 38 °F

Past Weeks' High & Low Weather Summary

 TemperatureHumidityPressure
High54 °F (Jan 13, 9:20 PM)100% (Jan 17, 1:20 AM)30.30 "Hg (Jan 17, 1:20 AM)
Low27 °F (Jan 19, 7:20 AM)58% (Jan 13, 9:20 PM)29.30 "Hg (Jan 28, 9:20 PM)
Average36 °F87%29.95 "Hg
* Reported Jan 13 9:20 PM — Jan 28 9:50 PM, Falkensee, Weather by CustomWeather, © 2014

Note: Actual official high and low records may vary slightly from our data, if they occured in-between our weather recording intervals... More about our weather records

Advertising

Falkensee weather history for previous 24 hours

 ConditionsComfort  
Time TempWeatherWind HumidityBarometerVisibility
9:50 PM
Jan 28
37 °FThundershowers. Passing clouds.17 mph93%29.30 "HgN/A
9:20 PM37 °FRain. Passing clouds.15 mph93%29.30 "HgN/A
8:50 PM37 °FLight rain. Passing clouds.14 mph93%29.33 "HgN/A
8:20 PM41 °FLight rain. Passing clouds.18 mph70%29.36 "HgN/A
7:50 PM41 °FPassing clouds.20 mph70%29.36 "HgN/A
7:20 PM41 °FPassing clouds.16 mph70%29.39 "HgN/A
6:50 PM41 °FPassing clouds.17 mph70%29.42 "HgN/A
6:20 PM41 °FPassing clouds.15 mph76%29.45 "HgN/A
5:50 PM41 °FPassing clouds.17 mph70%29.47 "HgN/A
5:20 PM41 °FPassing clouds.16 mph70%29.50 "HgN/A
4:50 PM41 °FPassing clouds.16 mph70%29.53 "HgN/A
4:20 PM41 °FPartly sunny.15 mph76%29.56 "HgN/A
3:50 PM41 °FBroken clouds.17 mph76%29.59 "HgN/A
3:20 PM41 °FBroken clouds.16 mph76%29.62 "HgN/A
2:50 PM41 °FBroken clouds.15 mph76%29.65 "HgN/A
2:20 PM41 °FBroken clouds.17 mph76%29.68 "HgN/A
1:50 PM41 °FBroken clouds.14 mph76%29.68 "HgN/A
1:20 PM41 °FPartly sunny.16 mph76%29.71 "HgN/A
12:50 PM41 °FPartly sunny.14 mph76%29.74 "HgN/A
12:20 PM41 °FPartly sunny.14 mph76%29.77 "HgN/A
11:50 AM39 °FPartly sunny.13 mph81%29.80 "HgN/A
11:20 AM39 °FPartly sunny.12 mph81%29.83 "HgN/A
10:50 AM39 °FPartly sunny.12 mph81%29.86 "HgN/A
10:20 AM39 °FPartly sunny.10 mph87%29.86 "HgN/A
9:50 AM39 °FPartly sunny.12 mph87%29.86 "HgN/A
9:20 AM37 °FBroken clouds.12 mph93%29.89 "HgN/A
8:50 AM37 °FBroken clouds.10 mph93%29.92 "Hg6 mi
8:20 AM37 °FPartly sunny.9 mph93%29.92 "Hg4 mi
7:50 AM37 °FFog.12 mph93%29.92 "Hg3 mi
7:20 AM36 °FDrizzle. Fog.10 mph100%29.92 "Hg3 mi
6:50 AM36 °FDrizzle. Fog.10 mph100%29.95 "Hg3 mi
6:20 AM36 °FDrizzle. Fog.7 mph100%29.95 "Hg3 mi
5:50 AM34 °FFog.9 mph100%29.95 "Hg3 mi
5:20 AM34 °FFog.8 mph100%29.98 "Hg2 mi
4:50 AM34 °FFog.9 mph100%29.98 "Hg1 mi
4:20 AM34 °FFog.10 mph100%29.98 "Hg2 mi
3:50 AM34 °FFog.9 mph100%29.98 "Hg1 mi
3:20 AM34 °FFog.10 mph100%30.01 "Hg1 mi
2:50 AM34 °FFog.12 mph100%30.01 "Hg3 mi
2:20 AM34 °FPassing clouds.7 mph100%30.01 "Hg5 mi
1:50 AM32 °FPassing clouds.8 mph100%30.01 "HgN/A
1:20 AM32 °FPassing clouds.8 mph100%30.01 "HgN/A
12:50 AM30 °FPassing clouds.5 mph93%30.01 "HgN/A
12:20 AM30 °FClear.6 mph100%30.01 "Hg10 mi
11:50 PM
Jan 27
32 °FClear.6 mph93%30.01 "Hg10 mi
11:20 PM32 °FClear.6 mph93%30.01 "Hg10 mi
Weather by CustomWeather, © 2014

See weather overviewHow to use our weather pages